LA5NNA Weather Reports


time (UTC)temp
C
wind
direction
speed
KPH
gust
KPH
rain 1hr
cm
rain 24hr
cm
rain mn
cm
humidity
%
barometer
mb
20260506002508 5 325 4.8 12.9 0.00 0.00 0.00 63 1012.5
20260506001508 5 335 1.6 4.8 0.00 0.00 0.00 63 1012.4
20260506001008 5 343 3.2 9.7 0.00 0.00 0.00 63 1012.4
20260506000508 5 315 3.2 9.7 0.00 0.00 0.00 63 1012.5
20260506000011 5 15 3.2 4.8 0.00 0.00 0.00 62 1012.3
20260505235508 5 27 3.2 9.7 0.00 0.00 0.00 62 1012.4
20260505235008 5 330 3.2 9.7 0.00 0.00 0.00 62 1012.4
20260505234507 5 25 4.8 11.3 0.00 0.00 0.00 62 1012.5
20260505234008 5 350 3.2 12.9 0.00 0.00 0.00 62 1012.4
20260505233011 5 348 4.8 14.5 0.00 0.00 0.00 62 1012.4
20260505232507 5 334 9.7 19.3 0.00 0.00 0.00 62 1012.4
20260505232008 5 332 8.0 16.1 0.00 0.00 0.00 62 1012.4
20260505231507 5 345 8.0 16.1 0.00 0.00 0.00 62 1012.5
20260505230507 5 325 9.7 19.3 0.00 0.00 0.00 62 1012.4
20260505225508 5 323 8.0 14.5 0.00 0.00 0.00 62 1012.5
20260505225007 5 327 4.8 12.9 0.00 0.00 0.00 62 1012.4
20260505224508 5 290 3.2 11.3 0.00 0.00 0.00 61 1012.5
20260505224007 5 325 8.0 19.3 0.00 0.00 0.00 61 1012.4
20260505223507 5 322 9.7 14.5 0.00 0.00 0.00 61 1012.4
20260505223011 5 325 8.0 14.5 0.00 0.00 0.00 61 1012.6
20260505222507 5 321 3.2 20.9 0.00 0.00 0.00 61 1012.6
20260505222008 5 336 4.8 14.5 0.00 0.00 0.00 61 1012.3
20260505221507 5 342 8.0 16.1 0.00 0.00 0.00 61 1012.3
20260505221007 5 335 4.8 16.1 0.00 0.00 0.00 61 1012.5
20260505220012 5 338 11.3 20.9 0.00 0.00 0.00 60 1012.3
20260505215507 5 328 8.0 19.3 0.00 0.00 0.00 60 1012.5
20260505215008 5 327 9.7 20.9 0.00 0.00 0.00 60 1012.5
20260505214507 5 326 8.0 20.9 0.00 0.00 0.00 60 1012.5
20260505214007 6 327 11.3 19.3 0.00 0.00 0.00 60 1012.4
20260505213507 6 326 11.3 20.9 0.00 0.00 0.00 60 1012.3
20260505213011 6 335 11.3 20.9 0.00 0.00 0.00 60 1012.4
20260505212508 6 331 8.0 19.3 0.00 0.00 0.00 60 1012.4
20260505212008 6 318 11.3 19.3 0.00 0.00 0.00 60 1012.4
20260505211008 6 326 8.0 20.9 0.00 0.00 0.00 62 1012.5
20260505210507 6 324 9.7 16.1 0.00 0.00 0.00 62 1012.4
20260505210011 6 324 9.7 16.1 0.00 0.00 0.00 62 1012.3
20260505205508 6 322 11.3 16.1 0.00 0.00 0.00 62 1012.2
20260505205007 6 319 9.7 14.5 0.00 0.00 0.00 62 1012.2
20260505204508 6 319 11.3 19.3 0.00 0.00 0.00 63 1012.2
20260505204007 6 318 12.9 16.1 0.00 0.00 0.00 63 1012.1
20260505203507 6 323 14.5 19.3 0.00 0.00 0.00 63 1012.0
20260505203011 6 318 12.9 19.3 0.00 0.00 0.00 63 1012.1
20260505202507 6 313 14.5 20.9 0.00 0.00 0.00 63 1012.1
20260505202008 6 311 14.5 20.9 0.00 0.00 0.00 63 1012.0
20260505201008 6 319 19.3 24.1 0.00 0.00 0.00 64 1011.8
20260505200507 6 318 17.7 25.7 0.00 0.00 0.00 64 1011.8
20260505200011 6 316 16.1 24.1 0.00 0.00 0.00 65 1011.7
20260505195507 6 321 16.1 24.1 0.00 0.00 0.00 65 1011.6
20260505195007 6 319 16.1 25.7 0.00 0.00 0.00 65 1011.7
20260505194507 6 317 19.3 25.7 0.00 0.00 0.00 66 1011.7
20260505194007 6 314 17.7 25.7 0.00 0.00 0.00 65 1011.6
20260505193507 6 315 16.1 27.4 0.00 0.00 0.00 65 1011.6
20260505193011 6 316 19.3 25.7 0.00 0.00 0.00 65 1011.6
20260505192007 6 311 17.7 25.7 0.00 0.00 0.00 64 1011.6
20260505191507 7 311 19.3 27.4 0.00 0.00 0.00 64 1011.7
20260505190011 7 312 19.3 29.0 0.00 0.00 0.00 63 1011.4
20260505185007 7 314 19.3 32.2 0.00 0.00 0.00 63 1011.3
20260505184507 7 318 20.9 27.4 0.00 0.00 0.00 64 1011.2
20260505184007 7 311 19.3 25.7 0.00 0.00 0.00 63 1011.3
20260505183507 7 302 16.1 25.7 0.00 0.00 0.00 63 1011.3
20260505182507 7 300 20.9 32.2 0.00 0.00 0.00 63 1011.2
20260505181507 7 304 24.1 35.4 0.00 0.00 0.00 64 1011.2
20260505181007 7 309 22.5 32.2 0.00 0.00 0.00 64 1011.3
20260505180507 7 304 19.3 32.2 0.00 0.00 0.00 64 1011.3
20260505180011 7 311 19.3 33.8 0.00 0.00 0.00 65 1011.2
20260505175507 7 296 22.5 29.0 0.00 0.00 0.00 65 1011.3
20260505175007 7 299 24.1 32.2 0.00 0.00 0.00 66 1011.3
20260505174507 7 300 24.1 32.2 0.00 0.00 0.00 67 1011.2
20260505173507 7 301 27.4 37.0 0.00 0.00 0.00 66 1011.2
20260505173011 7 304 29.0 40.2 0.00 0.00 0.00 66 1011.2
20260505172507 7 303 27.4 37.0 0.00 0.00 0.00 65 1011.2
20260505172007 8 291 29.0 38.6 0.00 0.00 0.00 65 1011.2
20260505171507 8 301 22.5 37.0 0.00 0.00 0.00 64 1011.2
20260505171007 8 302 25.7 37.0 0.00 0.00 0.00 64 1011.3
20260505170507 8 301 20.9 33.8 0.00 0.00 0.00 64 1011.3
20260505170010 8 293 22.5 33.8 0.00 0.00 0.00 64 1011.2
20260505165506 8 299 24.1 33.8 0.00 0.00 0.00 64 1011.1
20260505165007 8 290 25.7 33.8 0.00 0.00 0.00 63 1011.1
20260505164507 8 304 29.0 41.8 0.00 0.00 0.00 63 1011.1
20260505164007 8 299 32.2 41.8 0.00 0.00 0.00 63 1011.0
20260505163506 8 298 29.0 41.8 0.00 0.00 0.00 63 1011.0
20260505163010 8 298 29.0 45.1 0.00 0.00 0.00 63 1011.2
20260505162507 8 293 29.0 38.6 0.00 0.00 0.00 63 1011.2
20260505162007 8 292 25.7 40.2 0.00 0.00 0.00 63 1011.1
20260505161507 8 301 27.4 40.2 0.00 0.00 0.00 63 1011.3
20260505161007 8 305 30.6 40.2 0.00 0.00 0.00 64 1011.1
20260505153010 8 299 30.6 41.8 0.00 0.00 0.00 63 1011.2
20260505152506 8 301 27.4 37.0 0.00 0.00 0.00 63 1011.3
20260505152007 8 298 30.6 45.1 0.00 0.00 0.00 64 1011.2
20260505151507 8 296 29.0 38.6 0.00 0.00 0.00 64 1011.3
20260505151007 8 302 27.4 38.6 0.00 0.00 0.00 65 1011.3
20260505150507 8 289 27.4 38.6 0.00 0.00 0.00 65 1011.4
20260505140506 9 284 29.0 38.6 0.00 0.00 0.00 65 1011.3
20260505125007 8 278 19.3 33.8 0.00 0.00 0.00 67 1011.6
20260505124006 8 294 25.7 38.6 0.00 0.00 0.00 66 1011.4
20260505123507 8 296 27.4 35.4 0.00 0.00 0.00 66 1011.5
20260505123010 8 296 25.7 35.4 0.00 0.00 0.00 66 1011.5
20260505122507 8 290 20.9 33.8 0.00 0.00 0.00 66 1011.5
20260505122006 8 288 24.1 33.8 0.00 0.00 0.00 66 1011.5
20260505121007 8 300 20.9 33.8 0.00 0.00 0.00 67 1011.4
20260505120506 7 291 20.9 33.8 0.00 0.00 0.00 66 1011.4
20260505120010 7 295 25.7 33.8 0.00 0.00 0.00 67 1011.6
20260505115506 7 289 24.1 33.8 0.00 0.00 0.00 66 1011.6
20260505115007 7 285 22.5 38.6 0.00 0.00 0.00 66 1011.6
20260505114506 7 287 22.5 35.4 0.00 0.00 0.00 66 1011.6
20260505114007 7 289 20.9 35.4 0.00 0.00 0.00 66 1011.7
20260505113506 7 283 20.9 32.2 0.00 0.00 0.00 66 1011.6
20260505113010 8 291 20.9 35.4 0.00 0.00 0.00 66 1011.6
20260505112007 7 295 25.7 35.4 0.00 0.00 0.00 67 1011.6
20260505111006 7 289 24.1 37.0 0.00 0.00 0.00 68 1011.5
20260505110506 7 275 22.5 38.6 0.00 0.00 0.00 68 1011.5
20260505102007 7 266 20.9 32.2 0.00 0.00 0.00 67 1011.4
20260505101006 7 267 19.3 29.0 0.00 0.00 0.00 67 1011.2
20260505100506 7 269 16.1 32.2 0.00 0.00 0.00 66 1011.3
20260505100011 7 272 16.1 32.2 0.00 0.00 0.00 66 1011.3
20260505095506 7 266 16.1 27.4 0.00 0.00 0.00 65 1011.3
20260505094506 7 261 16.1 27.4 0.00 0.00 0.00 65 1011.3
20260505093507 7 265 19.3 29.0 0.00 0.00 0.00 63 1011.4
20260505093009 7 269 19.3 29.0 0.00 0.00 0.00 63 1011.5
20260505092506 7 278 17.7 27.4 0.00 0.00 0.00 62 1011.6
20260505092006 7 272 17.7 27.4 0.00 0.00 0.00 62 1011.5
20260505091506 7 277 16.1 27.4 0.00 0.00 0.00 61 1011.5
20260505090506 7 279 12.9 19.3 0.00 0.00 0.00 61 1011.6
20260505090010 7 310 11.3 19.3 0.00 0.00 0.00 61 1011.7
20260505085506 7 265 11.3 22.5 0.00 0.00 0.00 61 1011.7
20260505085006 7 276 12.9 22.5 0.00 0.00 0.00 61 1011.6
20260505084506 7 284 11.3 16.1 0.00 0.00 0.00 61 1011.7
20260505084006 7 291 11.3 19.3 0.00 0.00 0.00 61 1011.7
20260505083507 7 296 9.7 16.1 0.00 0.00 0.00 62 1011.6
20260505083010 7 300 8.0 14.5 0.00 0.00 0.00 62 1011.6
20260505082006 7 293 4.8 11.3 0.00 0.00 0.00 62 1011.3
20260505081505 7 29 4.8 9.7 0.00 0.00 0.00 62 1011.3
20260505081006 7 10 8.0 12.9 0.00 0.00 0.00 63 1011.3
20260505080010 6 14 4.8 16.1 0.00 0.00 0.00 64 1011.2
20260505075506 6 29 4.8 12.9 0.00 0.00 0.00 63 1011.2
20260505075006 6 355 8.0 22.5 0.00 0.00 0.00 63 1011.2
20260505074008 6 322 8.0 14.5 0.00 0.00 0.00 63 1011.3
20260505073509 6 324 11.3 20.9 0.00 0.00 0.00 63 1011.3
20260505073013 5 315 14.5 22.5 0.00 0.00 0.00 62 1011.3
20260505072508 5 316 16.1 22.5 0.00 0.00 0.00 63 1011.6
20260505072008 5 317 11.3 20.9 0.00 0.00 0.00 63 1011.5
20260505071509 5 313 11.3 20.9 0.00 0.00 0.00 64 1011.4
20260505071008 5 324 9.7 20.9 0.00 0.00 0.00 65 1011.4
20260505070509 5 350 6.4 22.5 0.00 0.00 0.00 64 1011.6
20260505070012 5 337 11.3 22.5 0.00 0.00 0.00 64 1011.6
20260505065509 5 322 11.3 29.0 0.00 0.00 0.00 64 1011.6
20260505065009 5 311 19.3 32.2 0.00 0.00 0.00 65 1011.6
20260505064508 5 317 16.1 25.7 0.00 0.00 0.00 65 1011.6
20260505064008 5 314 19.3 27.4 0.00 0.00 0.00 65 1011.6
20260505063012 4 313 17.7 27.4 0.00 0.00 0.00 66 1011.7
20260505062009 4 311 19.3 27.4 0.00 0.00 0.00 67 1011.6
20260505061508 4 317 20.9 29.0 0.00 0.00 0.00 67 1011.6
20260505061009 4 316 20.9 32.2 0.00 0.00 0.00 67 1011.6
20260505060508 4 311 19.3 27.4 0.00 0.00 0.00 68 1011.6
20260505060012 4 311 19.3 27.4 0.00 0.00 0.00 69 1011.6
20260505055510 3 309 17.7 24.1 0.00 0.00 0.00 69 1011.6
20260505055008 3 312 14.5 22.5 0.00 0.00 0.00 69 1011.6
20260505054508 3 312 16.1 25.7 0.00 0.00 0.00 69 1011.5
20260505054009 3 313 11.3 16.1 0.00 0.00 0.00 69 1011.3
20260505053012 3 310 9.7 14.5 0.00 0.00 0.00 69 1011.3
20260505052008 3 315 9.7 14.5 0.00 0.00 0.00 70 1011.4
20260505051508 3 321 9.7 14.5 0.00 0.00 0.00 70 1011.4
20260505051008 3 319 12.9 16.1 0.00 0.00 0.00 70 1011.5
20260505050509 3 312 11.3 16.1 0.00 0.00 0.00 71 1011.5
20260505041508 3 307 12.9 19.3 0.00 0.00 0.00 71 1011.3
20260505041008 3 310 11.3 19.3 0.00 0.00 0.00 71 1011.3
20260505040508 3 313 11.3 16.1 0.00 0.00 0.00 71 1011.1
20260505040011 3 316 11.3 16.1 0.00 0.00 0.00 71 1011.1
20260505035508 3 316 14.5 20.9 0.00 0.00 0.00 71 1011.3
20260505035008 3 313 14.5 20.9 0.00 0.00 0.00 71 1011.3
20260505034008 3 319 14.5 20.9 0.00 0.00 0.00 71 1011.2
20260505033508 3 312 16.1 22.5 0.00 0.00 0.00 71 1011.2
20260505033012 3 318 14.5 20.9 0.00 0.00 0.00 71 1011.3
20260505032008 3 313 19.3 24.1 0.00 0.00 0.00 71 1011.4
20260505031008 3 302 16.1 25.7 0.00 0.00 0.00 70 1011.3
20260505030508 3 302 16.1 22.5 0.00 0.00 0.00 70 1011.2
20260505030012 3 303 16.1 22.5 0.00 0.00 0.00 70 1011.3
20260505025508 3 302 11.3 16.1 0.00 0.00 0.00 70 1011.1
20260505025009 3 295 11.3 19.3 0.00 0.00 0.00 70 1011.1
20260505024508 3 303 12.9 16.1 0.00 0.00 0.00 70 1011.1
20260505024008 3 292 11.3 16.1 0.00 0.00 0.00 70 1011.1
20260505023508 3 299 11.3 16.1 0.00 0.00 0.00 70 1011.3
20260505022508 4 306 11.3 14.5 0.00 0.00 0.00 70 1011.3
20260505022008 4 313 9.7 14.5 0.00 0.00 0.00 70 1011.3
20260505021508 4 314 9.7 14.5 0.00 0.00 0.00 70 1011.2
20260505021008 4 310 8.0 14.5 0.00 0.00 0.00 70 1011.2
20260505020508 4 312 12.9 16.1 0.00 0.00 0.00 70 1011.2
20260505020011 4 318 12.9 16.1 0.00 0.00 0.00 70 1011.1
20260505015008 5 319 11.3 20.9 0.00 0.00 0.00 70 1011.1
20260505014508 5 314 11.3 19.3 0.00 0.00 0.00 71 1010.8
20260505013508 5 317 8.0 14.5 0.00 0.00 0.00 72 1010.9
20260505013012 5 325 6.4 11.3 0.00 0.00 0.00 72 1010.9
20260505012008 5 316 9.7 20.9 0.00 0.00 0.00 73 1010.9
20260505011508 5 319 4.8 11.3 0.00 0.00 0.00 73 1010.8
20260505011008 5 321 6.4 11.3 0.00 0.00 0.00 73 1010.9
20260505010507 5 318 4.8 11.3 0.00 0.00 0.00 73 1010.7
20260505005508 5 322 6.4 11.3 0.00 0.00 0.00 74 1010.8
20260505005008 5 308 3.2 9.7 0.00 0.00 0.00 74 1010.8
20260505004508 5 329 3.2 9.7 0.00 0.00 0.00 74 1010.9
20260505004007 5 338 4.8 11.3 0.00 0.00 0.00 74 1010.7
20260505003507 5 346 6.4 16.1 0.00 0.00 0.00 74 1010.6
20260505003012 5 341 4.8 11.3 0.00 0.00 0.00 74 1010.5